owner,sensor,date,latitude,longitude,vertical_datum,sea_water_practical_salinity,qcFlag 
SCCF RECON,ioos:station:SCCF:56:1,2017-12-01T05:00:00Z,26.4645,-82.1044,1.882,20.24,1111122 
SCCF RECON,ioos:station:SCCF:56:1,2017-12-01T06:00:00Z,26.4645,-82.1044,1.733,20.37,1111122 
SCCF RECON,ioos:station:SCCF:56:1,2017-12-01T07:00:00Z,26.4645,-82.1044,1.57,20.61,1111122 
SCCF RECON,ioos:station:SCCF:56:1,2017-12-01T08:00:00Z,26.4645,-82.1044,1.43,20.84,1111122 
SCCF RECON,ioos:station:SCCF:56:1,2017-12-01T09:00:00Z,26.4645,-82.1044,1.303,20.97,1111122 
SCCF RECON,ioos:station:SCCF:56:1,2017-12-01T10:00:00Z,26.4645,-82.1044,1.19,21.07,1111122 
SCCF RECON,ioos:station:SCCF:56:1,2017-12-01T11:00:00Z,26.4645,-82.1044,1.145,21.15,1111122 
SCCF RECON,ioos:station:SCCF:56:1,2017-12-01T12:00:00Z,26.4645,-82.1044,1.271,21.01,1111122 
SCCF RECON,ioos:station:SCCF:56:1,2017-12-01T13:00:00Z,26.4645,-82.1044,1.472,20.59,1111122 
SCCF RECON,ioos:station:SCCF:56:1,2017-12-01T14:00:00Z,26.4645,-82.1044,1.627,20.65,1111122 
SCCF RECON,ioos:station:SCCF:56:1,2017-12-01T15:00:00Z,26.4645,-82.1044,1.747,20.6,1111122 
SCCF RECON,ioos:station:SCCF:56:1,2017-12-01T16:00:00Z,26.4645,-82.1044,1.82,20.59,1111122 
SCCF RECON,ioos:station:SCCF:56:1,2017-12-01T17:00:00Z,26.4645,-82.1044,1.83,20.75,1111122 
SCCF RECON,ioos:station:SCCF:56:1,2017-12-01T18:00:00Z,26.4645,-82.1044,1.754,20.72,1111122 
SCCF RECON,ioos:station:SCCF:56:1,2017-12-01T19:00:00Z,26.4645,-82.1044,1.66,20.64,1111122 
SCCF RECON,ioos:station:SCCF:56:1,2017-12-01T20:00:00Z,26.4645,-82.1044,1.575,20.7,1111122 
SCCF RECON,ioos:station:SCCF:56:1,2017-12-01T21:00:00Z,26.4645,-82.1044,1.53,20.73,1111122 
SCCF RECON,ioos:station:SCCF:56:1,2017-12-01T22:00:00Z,26.4645,-82.1044,1.51,20.76,1111122 
SCCF RECON,ioos:station:SCCF:56:1,2017-12-02T05:00:00Z,26.4645,-82.1044,2.034,20.79,1111122 
SCCF RECON,ioos:station:SCCF:56:1,2017-12-02T06:00:00Z,26.4645,-82.1044,1.9,20.83,1111122 
SCCF RECON,ioos:station:SCCF:56:1,2017-12-02T07:00:00Z,26.4645,-82.1044,1.72,20.87,1111122 
SCCF RECON,ioos:station:SCCF:56:1,2017-12-02T08:00:00Z,26.4645,-82.1044,1.541,20.96,1111122 
SCCF RECON,ioos:station:SCCF:56:1,2017-12-02T09:00:00Z,26.4645,-82.1044,1.39,21.04,1111122 
SCCF RECON,ioos:station:SCCF:56:1,2017-12-02T10:00:00Z,26.4645,-82.1044,1.25,21.1,1111122 
SCCF RECON,ioos:station:SCCF:56:1,2017-12-02T11:00:00Z,26.4645,-82.1044,1.15,21.16,1111122 
SCCF RECON,ioos:station:SCCF:56:1,2017-12-02T12:00:00Z,26.4645,-82.1044,1.147,21.23,1111122 
SCCF RECON,ioos:station:SCCF:56:1,2017-12-02T13:00:00Z,26.4645,-82.1044,1.31,21.02,1111122 
SCCF RECON,ioos:station:SCCF:56:1,2017-12-02T14:00:00Z,26.4645,-82.1044,1.52,21.01,1111122 
SCCF RECON,ioos:station:SCCF:56:1,2017-12-02T15:00:00Z,26.4645,-82.1044,1.676,21.07,1111122 
SCCF RECON,ioos:station:SCCF:56:1,2017-12-02T16:00:00Z,26.4645,-82.1044,1.801,21.06,1111122 
SCCF RECON,ioos:station:SCCF:56:1,2017-12-02T17:00:00Z,26.4645,-82.1044,1.88,21.46,1111122 
SCCF RECON,ioos:station:SCCF:56:1,2017-12-02T18:00:00Z,26.4645,-82.1044,1.87,21.33,1111122 
SCCF RECON,ioos:station:SCCF:56:1,2017-12-02T19:00:00Z,26.4645,-82.1044,1.789,21.22,1111122 
SCCF RECON,ioos:station:SCCF:56:1,2017-12-02T20:00:00Z,26.4645,-82.1044,1.68,21.07,1111122 
SCCF RECON,ioos:station:SCCF:56:1,2017-12-02T21:00:00Z,26.4645,-82.1044,1.61,21.04,1111122 
SCCF RECON,ioos:station:SCCF:56:1,2017-12-02T22:00:00Z,26.4645,-82.1044,1.57,21.06,1111122 
SCCF RECON,ioos:station:SCCF:56:1,2017-12-03T05:00:00Z,26.4645,-82.1044,2.117,21.45,1111122 
SCCF RECON,ioos:station:SCCF:56:1,2017-12-03T06:00:00Z,26.4645,-82.1044,2.03,21.34,1111122 
SCCF RECON,ioos:station:SCCF:56:1,2017-12-03T07:00:00Z,26.4645,-82.1044,1.86,21.43,1111122 
SCCF RECON,ioos:station:SCCF:56:1,2017-12-03T08:00:00Z,26.4645,-82.1044,1.678,21.37,1111122 
SCCF RECON,ioos:station:SCCF:56:1,2017-12-03T09:00:00Z,26.4645,-82.1044,1.5,21.33,1111122 
SCCF RECON,ioos:station:SCCF:56:1,2017-12-03T10:00:00Z,26.4645,-82.1044,1.35,21.34,1111122 
SCCF RECON,ioos:station:SCCF:56:1,2017-12-03T11:00:00Z,26.4645,-82.1044,1.22,21.37,1111122 
SCCF RECON,ioos:station:SCCF:56:1,2017-12-03T12:00:00Z,26.4645,-82.1044,1.12,21.41,1111122 
SCCF RECON,ioos:station:SCCF:56:1,2017-12-03T13:00:00Z,26.4645,-82.1044,1.13,21.47,1111122 
SCCF RECON,ioos:station:SCCF:56:1,2017-12-03T14:00:00Z,26.4645,-82.1044,1.34,21.4,1111122 
SCCF RECON,ioos:station:SCCF:56:1,2017-12-03T15:00:00Z,26.4645,-82.1044,1.552,21.62,1111122 
SCCF RECON,ioos:station:SCCF:56:1,2017-12-03T16:00:00Z,26.4645,-82.1044,1.71,21.57,1111122 
SCCF RECON,ioos:station:SCCF:56:1,2017-12-03T17:00:00Z,26.4645,-82.1044,1.828,21.75,1111122 
SCCF RECON,ioos:station:SCCF:56:1,2017-12-03T18:00:00Z,26.4645,-82.1044,1.9,22.23,1111122 
SCCF RECON,ioos:station:SCCF:56:1,2017-12-03T19:00:00Z,26.4645,-82.1044,1.9,21.92,1111122 
SCCF RECON,ioos:station:SCCF:56:1,2017-12-03T20:00:00Z,26.4645,-82.1044,1.81,21.71,1111122 
SCCF RECON,ioos:station:SCCF:56:1,2017-12-03T21:00:00Z,26.4645,-82.1044,1.71,21.82,1111122 
SCCF RECON,ioos:station:SCCF:56:1,2017-12-03T22:00:00Z,26.4645,-82.1044,1.66,21.62,1111122 
SCCF RECON,ioos:station:SCCF:56:1,2017-12-04T05:00:00Z,26.4645,-82.1044,2.111,22.37,1111122 
SCCF RECON,ioos:station:SCCF:56:1,2017-12-04T06:00:00Z,26.4645,-82.1044,2.09,22.24,1111122 
SCCF RECON,ioos:station:SCCF:56:1,2017-12-04T07:00:00Z,26.4645,-82.1044,1.96,22.16,1111122 
SCCF RECON,ioos:station:SCCF:56:1,2017-12-04T08:00:00Z,26.4645,-82.1044,1.78,22.16,1111122 
SCCF RECON,ioos:station:SCCF:56:1,2017-12-04T09:00:00Z,26.4645,-82.1044,1.61,21.99,1111122 
SCCF RECON,ioos:station:SCCF:56:1,2017-12-04T10:00:00Z,26.4645,-82.1044,1.44,21.94,1111122 
SCCF RECON,ioos:station:SCCF:56:1,2017-12-04T11:00:00Z,26.4645,-82.1044,1.29,21.91,1111122 
SCCF RECON,ioos:station:SCCF:56:1,2017-12-04T12:00:00Z,26.4645,-82.1044,1.152,21.88,1111122 
SCCF RECON,ioos:station:SCCF:56:1,2017-12-04T13:00:00Z,26.4645,-82.1044,1.059,21.89,1111122 
SCCF RECON,ioos:station:SCCF:56:1,2017-12-04T14:00:00Z,26.4645,-82.1044,1.077,21.93,1111122 
SCCF RECON,ioos:station:SCCF:56:1,2017-12-04T15:00:00Z,26.4645,-82.1044,1.31,21.98,1111122 
SCCF RECON,ioos:station:SCCF:56:1,2017-12-04T16:00:00Z,26.4645,-82.1044,1.51,22.58,1111122 
SCCF RECON,ioos:station:SCCF:56:1,2017-12-04T17:00:00Z,26.4645,-82.1044,1.65,22.48,1111122 
SCCF RECON,ioos:station:SCCF:56:1,2017-12-04T18:00:00Z,26.4645,-82.1044,1.757,22.81,1111122 
SCCF RECON,ioos:station:SCCF:56:1,2017-12-04T19:00:00Z,26.4645,-82.1044,1.823,22.66,1111122 
SCCF RECON,ioos:station:SCCF:56:1,2017-12-04T20:00:00Z,26.4645,-82.1044,1.829,22.33,1111122 
SCCF RECON,ioos:station:SCCF:56:1,2017-12-04T21:00:00Z,26.4645,-82.1044,1.769,22.72,1111122 
SCCF RECON,ioos:station:SCCF:56:1,2017-12-04T22:00:00Z,26.4645,-82.1044,1.709,22.72,1111122 
SCCF RECON,ioos:station:SCCF:56:1,2017-12-05T05:00:00Z,26.4645,-82.1044,2.12,22.91,1111122 
SCCF RECON,ioos:station:SCCF:56:1,2017-12-05T06:00:00Z,26.4645,-82.1044,2.132,22.57,1111122 
SCCF RECON,ioos:station:SCCF:56:1,2017-12-05T07:00:00Z,26.4645,-82.1044,2.085,22.63,1111122 
SCCF RECON,ioos:station:SCCF:56:1,2017-12-05T08:00:00Z,26.4645,-82.1044,1.96,22.66,1111122 
SCCF RECON,ioos:station:SCCF:56:1,2017-12-05T09:00:00Z,26.4645,-82.1044,1.79,22.57,1111122 
SCCF RECON,ioos:station:SCCF:56:1,2017-12-05T10:00:00Z,26.4645,-82.1044,1.62,22.49,1111122 
SCCF RECON,ioos:station:SCCF:56:1,2017-12-05T11:00:00Z,26.4645,-82.1044,1.46,22.46,1111122 
SCCF RECON,ioos:station:SCCF:56:1,2017-12-05T12:00:00Z,26.4645,-82.1044,1.32,22.44,1111122 
SCCF RECON,ioos:station:SCCF:56:1,2017-12-05T13:00:00Z,26.4645,-82.1044,1.189,22.44,1111122 
SCCF RECON,ioos:station:SCCF:56:1,2017-12-05T14:00:00Z,26.4645,-82.1044,1.101,22.44,1111122 
SCCF RECON,ioos:station:SCCF:56:1,2017-12-05T15:00:00Z,26.4645,-82.1044,1.18,22.47,1111122 
SCCF RECON,ioos:station:SCCF:56:1,2017-12-05T16:00:00Z,26.4645,-82.1044,1.401,22.66,1111122 
SCCF RECON,ioos:station:SCCF:56:1,2017-12-05T17:00:00Z,26.4645,-82.1044,1.58,22.81,1111122 
SCCF RECON,ioos:station:SCCF:56:1,2017-12-05T18:00:00Z,26.4645,-82.1044,1.69,22.92,1111122 
SCCF RECON,ioos:station:SCCF:56:1,2017-12-05T19:00:00Z,26.4645,-82.1044,1.774,23.33,1111122 
SCCF RECON,ioos:station:SCCF:56:1,2017-12-05T20:00:00Z,26.4645,-82.1044,1.82,23.75,1111122 
SCCF RECON,ioos:station:SCCF:56:1,2017-12-05T21:00:00Z,26.4645,-82.1044,1.797,23.67,1111122 
SCCF RECON,ioos:station:SCCF:56:1,2017-12-05T22:00:00Z,26.4645,-82.1044,1.74,23.33,1111122 
SCCF RECON,ioos:station:SCCF:56:1,2017-12-06T05:00:00Z,26.4645,-82.1044,2.037,23.71,1111122 
SCCF RECON,ioos:station:SCCF:56:1,2017-12-06T06:00:00Z,26.4645,-82.1044,2.09,23.85,1111122 
SCCF RECON,ioos:station:SCCF:56:1,2017-12-06T07:00:00Z,26.4645,-82.1044,2.08,23.81,1111122 
SCCF RECON,ioos:station:SCCF:56:1,2017-12-06T08:00:00Z,26.4645,-82.1044,2.01,23.46,1111122 
SCCF RECON,ioos:station:SCCF:56:1,2017-12-06T09:00:00Z,26.4645,-82.1044,1.88,23.54,1111122 
SCCF RECON,ioos:station:SCCF:56:1,2017-12-06T10:00:00Z,26.4645,-82.1044,1.72,23.41,1111122 
SCCF RECON,ioos:station:SCCF:56:1,2017-12-06T11:00:00Z,26.4645,-82.1044,1.554,23.2,1111122 
SCCF RECON,ioos:station:SCCF:56:1,2017-12-06T12:00:00Z,26.4645,-82.1044,1.401,23.12,1111122 
SCCF RECON,ioos:station:SCCF:56:1,2017-12-06T13:00:00Z,26.4645,-82.1044,1.27,23.05,1111122 
SCCF RECON,ioos:station:SCCF:56:1,2017-12-06T14:00:00Z,26.4645,-82.1044,1.149,23.0,1111122 
SCCF RECON,ioos:station:SCCF:56:1,2017-12-06T15:00:00Z,26.4645,-82.1044,1.09,22.96,1111122 
SCCF RECON,ioos:station:SCCF:56:1,2017-12-06T16:00:00Z,26.4645,-82.1044,1.2,22.98,1111122 
SCCF RECON,ioos:station:SCCF:56:1,2017-12-06T17:00:00Z,26.4645,-82.1044,1.42,23.68,1111122 
SCCF RECON,ioos:station:SCCF:56:1,2017-12-06T18:00:00Z,26.4645,-82.1044,1.565,24.1,1111122 
SCCF RECON,ioos:station:SCCF:56:1,2017-12-06T19:00:00Z,26.4645,-82.1044,1.67,24.63,1111122 
SCCF RECON,ioos:station:SCCF:56:1,2017-12-06T20:00:00Z,26.4645,-82.1044,1.75,24.72,1111122 
SCCF RECON,ioos:station:SCCF:56:1,2017-12-06T21:00:00Z,26.4645,-82.1044,1.8,25.22,1111122 
SCCF RECON,ioos:station:SCCF:56:1,2017-12-06T22:00:00Z,26.4645,-82.1044,1.789,25.04,1111122 
SCCF RECON,ioos:station:SCCF:56:1,2017-12-07T05:00:00Z,26.4645,-82.1044,1.89,24.88,1111122 
SCCF RECON,ioos:station:SCCF:56:1,2017-12-07T06:00:00Z,26.4645,-82.1044,1.95,24.69,1111122 
SCCF RECON,ioos:station:SCCF:56:1,2017-12-07T07:00:00Z,26.4645,-82.1044,1.95,24.9,1111122 
SCCF RECON,ioos:station:SCCF:56:1,2017-12-07T08:00:00Z,26.4645,-82.1044,1.95,24.92,1111122 
SCCF RECON,ioos:station:SCCF:56:1,2017-12-07T09:00:00Z,26.4645,-82.1044,1.922,25.13,1111122 
SCCF RECON,ioos:station:SCCF:56:1,2017-12-07T10:00:00Z,26.4645,-82.1044,1.82,24.56,1111122 
SCCF RECON,ioos:station:SCCF:56:1,2017-12-07T11:00:00Z,26.4645,-82.1044,1.67,24.53,1111122 
SCCF RECON,ioos:station:SCCF:56:1,2017-12-07T12:00:00Z,26.4645,-82.1044,1.494,24.29,1111122 
SCCF RECON,ioos:station:SCCF:56:1,2017-12-07T13:00:00Z,26.4645,-82.1044,1.35,24.1,1111122 
SCCF RECON,ioos:station:SCCF:56:1,2017-12-07T14:00:00Z,26.4645,-82.1044,1.23,23.97,1111122 
SCCF RECON,ioos:station:SCCF:56:1,2017-12-07T15:00:00Z,26.4645,-82.1044,1.122,23.87,1111122 
SCCF RECON,ioos:station:SCCF:56:1,2017-12-07T16:00:00Z,26.4645,-82.1044,1.071,23.82,1111122 
SCCF RECON,ioos:station:SCCF:56:1,2017-12-07T17:00:00Z,26.4645,-82.1044,1.21,23.97,1111122 
SCCF RECON,ioos:station:SCCF:56:1,2017-12-07T18:00:00Z,26.4645,-82.1044,1.403,25.07,1111122 
SCCF RECON,ioos:station:SCCF:56:1,2017-12-07T19:00:00Z,26.4645,-82.1044,1.547,25.34,1111122 
SCCF RECON,ioos:station:SCCF:56:1,2017-12-07T20:00:00Z,26.4645,-82.1044,1.649,25.76,1111122 
SCCF RECON,ioos:station:SCCF:56:1,2017-12-07T22:00:00Z,26.4645,-82.1044,1.76,25.66,1111122 
SCCF RECON,ioos:station:SCCF:56:1,2017-12-08T05:00:00Z,26.4645,-82.1044,1.76,25.86,1111122 
SCCF RECON,ioos:station:SCCF:56:1,2017-12-08T06:00:00Z,26.4645,-82.1044,1.84,25.65,1111122 
SCCF RECON,ioos:station:SCCF:56:1,2017-12-08T07:00:00Z,26.4645,-82.1044,1.9,25.64,1111122 
SCCF RECON,ioos:station:SCCF:56:1,2017-12-08T08:00:00Z,26.4645,-82.1044,1.94,26.22,1111122 
SCCF RECON,ioos:station:SCCF:56:1,2017-12-08T09:00:00Z,26.4645,-82.1044,1.94,26.16,1111122 
SCCF RECON,ioos:station:SCCF:56:1,2017-12-08T10:00:00Z,26.4645,-82.1044,1.901,26.5,1111122 
SCCF RECON,ioos:station:SCCF:56:1,2017-12-08T11:00:00Z,26.4645,-82.1044,1.828,25.94,1111122 
SCCF RECON,ioos:station:SCCF:56:1,2017-12-08T12:00:00Z,26.4645,-82.1044,1.67,25.58,1111122 
SCCF RECON,ioos:station:SCCF:56:1,2017-12-08T13:00:00Z,26.4645,-82.1044,1.52,25.33,1111122 
SCCF RECON,ioos:station:SCCF:56:1,2017-12-08T14:00:00Z,26.4645,-82.1044,1.4,25.14,1111122 
SCCF RECON,ioos:station:SCCF:56:1,2017-12-08T15:00:00Z,26.4645,-82.1044,1.281,25.01,1111122 
SCCF RECON,ioos:station:SCCF:56:1,2017-12-08T16:00:00Z,26.4645,-82.1044,1.19,24.9,1111122 
SCCF RECON,ioos:station:SCCF:56:1,2017-12-08T17:00:00Z,26.4645,-82.1044,1.2,24.92,1111122 
SCCF RECON,ioos:station:SCCF:56:1,2017-12-08T18:00:00Z,26.4645,-82.1044,1.33,25.48,1111122 
SCCF RECON,ioos:station:SCCF:56:1,2017-12-08T19:00:00Z,26.4645,-82.1044,1.478,27.65,1111122 
SCCF RECON,ioos:station:SCCF:56:1,2017-12-08T20:00:00Z,26.4645,-82.1044,1.58,27.96,1111122 
SCCF RECON,ioos:station:SCCF:56:1,2017-12-08T21:00:00Z,26.4645,-82.1044,1.68,28.12,1111122 
SCCF RECON,ioos:station:SCCF:56:1,2017-12-08T22:00:00Z,26.4645,-82.1044,1.76,27.95,1111122 
SCCF RECON,ioos:station:SCCF:56:1,2017-12-09T05:00:00Z,26.4645,-82.1044,1.69,27.63,1111122 
SCCF RECON,ioos:station:SCCF:56:1,2017-12-09T06:00:00Z,26.4645,-82.1044,1.793,29.76,1111122 
SCCF RECON,ioos:station:SCCF:56:1,2017-12-09T07:00:00Z,26.4645,-82.1044,1.887,29.37,1111122 
SCCF RECON,ioos:station:SCCF:56:1,2017-12-09T08:00:00Z,26.4645,-82.1044,1.93,29.47,1111122 
SCCF RECON,ioos:station:SCCF:56:1,2017-12-09T09:00:00Z,26.4645,-82.1044,1.98,29.73,1111122 
SCCF RECON,ioos:station:SCCF:56:1,2017-12-09T10:00:00Z,26.4645,-82.1044,2.01,29.76,1111122 
SCCF RECON,ioos:station:SCCF:56:1,2017-12-09T11:00:00Z,26.4645,-82.1044,2.005,29.01,1111122 
SCCF RECON,ioos:station:SCCF:56:1,2017-12-09T12:00:00Z,26.4645,-82.1044,1.941,28.85,1111122 
SCCF RECON,ioos:station:SCCF:56:1,2017-12-09T13:00:00Z,26.4645,-82.1044,1.83,27.9,1111122 
SCCF RECON,ioos:station:SCCF:56:1,2017-12-09T14:00:00Z,26.4645,-82.1044,1.69,27.31,1111122 
SCCF RECON,ioos:station:SCCF:56:1,2017-12-09T15:00:00Z,26.4645,-82.1044,1.515,26.7,1111122 
SCCF RECON,ioos:station:SCCF:56:1,2017-12-09T16:00:00Z,26.4645,-82.1044,1.36,26.47,1111122 
SCCF RECON,ioos:station:SCCF:56:1,2017-12-09T17:00:00Z,26.4645,-82.1044,1.24,26.4,1111122 
SCCF RECON,ioos:station:SCCF:56:1,2017-12-09T18:00:00Z,26.4645,-82.1044,1.21,26.26,1111122 
SCCF RECON,ioos:station:SCCF:56:1,2017-12-09T19:00:00Z,26.4645,-82.1044,1.34,27.02,1111122 
SCCF RECON,ioos:station:SCCF:56:1,2017-12-09T20:00:00Z,26.4645,-82.1044,1.498,26.14,1111122 
SCCF RECON,ioos:station:SCCF:56:1,2017-12-09T21:00:00Z,26.4645,-82.1044,1.55,26.54,1111122 
SCCF RECON,ioos:station:SCCF:56:1,2017-12-09T22:00:00Z,26.4645,-82.1044,1.55,26.23,1111122 
SCCF RECON,ioos:station:SCCF:56:1,2017-12-10T05:00:00Z,26.4645,-82.1044,1.369,25.67,1111122 
SCCF RECON,ioos:station:SCCF:56:1,2017-12-10T06:00:00Z,26.4645,-82.1044,1.3,25.47,1111122 
SCCF RECON,ioos:station:SCCF:56:1,2017-12-10T07:00:00Z,26.4645,-82.1044,1.29,25.34,1111122 
SCCF RECON,ioos:station:SCCF:56:1,2017-12-10T08:00:00Z,26.4645,-82.1044,1.361,25.54,1111122 
SCCF RECON,ioos:station:SCCF:56:1,2017-12-10T09:00:00Z,26.4645,-82.1044,1.44,26.35,1111122 
SCCF RECON,ioos:station:SCCF:56:1,2017-12-10T10:00:00Z,26.4645,-82.1044,1.474,26.61,1111122 
SCCF RECON,ioos:station:SCCF:56:1,2017-12-10T11:00:00Z,26.4645,-82.1044,1.49,26.71,1111122 
SCCF RECON,ioos:station:SCCF:56:1,2017-12-10T12:00:00Z,26.4645,-82.1044,1.51,26.5,1111122 
SCCF RECON,ioos:station:SCCF:56:1,2017-12-10T13:00:00Z,26.4645,-82.1044,1.51,26.42,1111122 
SCCF RECON,ioos:station:SCCF:56:1,2017-12-10T14:00:00Z,26.4645,-82.1044,1.47,26.13,1111122 
SCCF RECON,ioos:station:SCCF:56:1,2017-12-10T15:00:00Z,26.4645,-82.1044,1.382,25.74,1111122 
SCCF RECON,ioos:station:SCCF:56:1,2017-12-10T16:00:00Z,26.4645,-82.1044,1.32,25.68,1111122 
SCCF RECON,ioos:station:SCCF:56:1,2017-12-10T17:00:00Z,26.4645,-82.1044,1.247,25.49,1111122 
SCCF RECON,ioos:station:SCCF:56:1,2017-12-10T18:00:00Z,26.4645,-82.1044,1.216,25.44,1111122 
SCCF RECON,ioos:station:SCCF:56:1,2017-12-10T19:00:00Z,26.4645,-82.1044,1.2,25.39,1111122 
SCCF RECON,ioos:station:SCCF:56:1,2017-12-10T20:00:00Z,26.4645,-82.1044,1.28,26.63,1111122 
SCCF RECON,ioos:station:SCCF:56:1,2017-12-10T21:00:00Z,26.4645,-82.1044,1.419,27.76,1111122 
SCCF RECON,ioos:station:SCCF:56:1,2017-12-10T22:00:00Z,26.4645,-82.1044,1.54,28.03,1111122 
SCCF RECON,ioos:station:SCCF:56:1,2017-12-11T05:00:00Z,26.4645,-82.1044,1.512,27.43,1111122 
SCCF RECON,ioos:station:SCCF:56:1,2017-12-11T06:00:00Z,26.4645,-82.1044,1.43,27.17,1111122 
SCCF RECON,ioos:station:SCCF:56:1,2017-12-11T07:00:00Z,26.4645,-82.1044,1.37,27.01,1111122 
SCCF RECON,ioos:station:SCCF:56:1,2017-12-11T08:00:00Z,26.4645,-82.1044,1.36,26.89,1111122 
SCCF RECON,ioos:station:SCCF:56:1,2017-12-11T09:00:00Z,26.4645,-82.1044,1.41,26.68,1111122 
SCCF RECON,ioos:station:SCCF:56:1,2017-12-11T10:00:00Z,26.4645,-82.1044,1.48,24.64,1111122 
SCCF RECON,ioos:station:SCCF:56:1,2017-12-11T11:00:00Z,26.4645,-82.1044,1.55,24.24,1111122 
SCCF RECON,ioos:station:SCCF:56:1,2017-12-11T12:00:00Z,26.4645,-82.1044,1.6,24.31,1111122 
SCCF RECON,ioos:station:SCCF:56:1,2017-12-11T13:00:00Z,26.4645,-82.1044,1.63,27.84,1111122 
SCCF RECON,ioos:station:SCCF:56:1,2017-12-11T14:00:00Z,26.4645,-82.1044,1.603,26.97,1111122 
SCCF RECON,ioos:station:SCCF:56:1,2017-12-11T15:00:00Z,26.4645,-82.1044,1.528,25.36,1111122 
SCCF RECON,ioos:station:SCCF:56:1,2017-12-11T16:00:00Z,26.4645,-82.1044,1.45,25.45,1111122 
SCCF RECON,ioos:station:SCCF:56:1,2017-12-11T17:00:00Z,26.4645,-82.1044,1.38,25.64,1111122 
SCCF RECON,ioos:station:SCCF:56:1,2017-12-11T18:00:00Z,26.4645,-82.1044,1.31,25.9,1111122 
SCCF RECON,ioos:station:SCCF:56:1,2017-12-11T19:00:00Z,26.4645,-82.1044,1.26,26.08,1111122 
SCCF RECON,ioos:station:SCCF:56:1,2017-12-11T20:00:00Z,26.4645,-82.1044,1.28,26.0,1111122 
SCCF RECON,ioos:station:SCCF:56:1,2017-12-11T21:00:00Z,26.4645,-82.1044,1.37,26.17,1111122 
SCCF RECON,ioos:station:SCCF:56:1,2017-12-11T22:00:00Z,26.4645,-82.1044,1.502,27.14,1111122 
SCCF RECON,ioos:station:SCCF:56:1,2017-12-12T05:00:00Z,26.4645,-82.1044,1.61,27.02,1111122 
SCCF RECON,ioos:station:SCCF:56:1,2017-12-12T06:00:00Z,26.4645,-82.1044,1.51,26.54,1111122 
SCCF RECON,ioos:station:SCCF:56:1,2017-12-12T07:00:00Z,26.4645,-82.1044,1.43,26.5,1111122 
SCCF RECON,ioos:station:SCCF:56:1,2017-12-12T08:00:00Z,26.4645,-82.1044,1.38,26.42,1111122 
SCCF RECON,ioos:station:SCCF:56:1,2017-12-12T09:00:00Z,26.4645,-82.1044,1.4,26.44,1111122 
SCCF RECON,ioos:station:SCCF:56:1,2017-12-12T10:00:00Z,26.4645,-82.1044,1.515,25.71,1111122 
SCCF RECON,ioos:station:SCCF:56:1,2017-12-12T11:00:00Z,26.4645,-82.1044,1.62,26.05,1111122 
SCCF RECON,ioos:station:SCCF:56:1,2017-12-12T12:00:00Z,26.4645,-82.1044,1.7,26.91,1111122 
SCCF RECON,ioos:station:SCCF:56:1,2017-12-12T13:00:00Z,26.4645,-82.1044,1.76,26.98,1111122 
SCCF RECON,ioos:station:SCCF:56:1,2017-12-12T14:00:00Z,26.4645,-82.1044,1.81,26.58,1111122 
SCCF RECON,ioos:station:SCCF:56:1,2017-12-12T15:00:00Z,26.4645,-82.1044,1.83,26.47,1111122 
SCCF RECON,ioos:station:SCCF:56:1,2017-12-12T16:00:00Z,26.4645,-82.1044,1.8,27.01,1111122 
SCCF RECON,ioos:station:SCCF:56:1,2017-12-12T17:00:00Z,26.4645,-82.1044,1.71,26.97,1111122 
SCCF RECON,ioos:station:SCCF:56:1,2017-12-12T18:00:00Z,26.4645,-82.1044,1.61,27.08,1111122 
SCCF RECON,ioos:station:SCCF:56:1,2017-12-12T20:00:00Z,26.4645,-82.1044,1.55,26.78,1111122 
SCCF RECON,ioos:station:SCCF:56:1,2017-12-12T21:00:00Z,26.4645,-82.1044,1.588,26.93,1111122 
SCCF RECON,ioos:station:SCCF:56:1,2017-12-12T22:00:00Z,26.4645,-82.1044,1.64,27.34,1111122 
SCCF RECON,ioos:station:SCCF:56:1,2017-12-13T09:00:00Z,26.4645,-82.1044,1.25,26.74,1111122 
SCCF RECON,ioos:station:SCCF:56:1,2017-12-13T10:00:00Z,26.4645,-82.1044,1.22,26.65,1111122 
SCCF RECON,ioos:station:SCCF:56:1,2017-12-13T11:00:00Z,26.4645,-82.1044,1.28,26.73,1111122 
SCCF RECON,ioos:station:SCCF:56:1,2017-12-13T12:00:00Z,26.4645,-82.1044,1.4,27.1,1111122 
SCCF RECON,ioos:station:SCCF:56:1,2017-12-13T13:00:00Z,26.4645,-82.1044,1.5,27.46,1111122 
SCCF RECON,ioos:station:SCCF:56:1,2017-12-13T14:00:00Z,26.4645,-82.1044,1.58,27.6,1111122 
SCCF RECON,ioos:station:SCCF:56:1,2017-12-13T17:00:00Z,26.4645,-82.1044,1.62,28.03,1111122 
SCCF RECON,ioos:station:SCCF:56:1,2017-12-13T18:00:00Z,26.4645,-82.1044,1.563,27.84,1111122 
SCCF RECON,ioos:station:SCCF:56:1,2017-12-13T19:00:00Z,26.4645,-82.1044,1.493,27.51,1111122 
SCCF RECON,ioos:station:SCCF:56:1,2017-12-13T20:00:00Z,26.4645,-82.1044,1.472,27.36,1111122 
SCCF RECON,ioos:station:SCCF:56:1,2017-12-13T21:00:00Z,26.4645,-82.1044,1.51,27.62,1111122 
SCCF RECON,ioos:station:SCCF:56:1,2017-12-13T22:00:00Z,26.4645,-82.1044,1.571,27.85,1111122 
SCCF RECON,ioos:station:SCCF:56:1,2017-12-14T11:00:00Z,26.4645,-82.1044,1.31,27.47,1111122 
SCCF RECON,ioos:station:SCCF:56:1,2017-12-14T12:00:00Z,26.4645,-82.1044,1.44,27.68,1111122 
SCCF RECON,ioos:station:SCCF:56:1,2017-12-14T13:00:00Z,26.4645,-82.1044,1.58,27.63,1111122 
SCCF RECON,ioos:station:SCCF:56:1,2017-12-14T14:00:00Z,26.4645,-82.1044,1.66,28.79,1111122 
SCCF RECON,ioos:station:SCCF:56:1,2017-12-14T15:00:00Z,26.4645,-82.1044,1.73,28.96,1111122 
SCCF RECON,ioos:station:SCCF:56:1,2017-12-14T16:00:00Z,26.4645,-82.1044,1.77,28.45,1111122 
SCCF RECON,ioos:station:SCCF:56:1,2017-12-14T17:00:00Z,26.4645,-82.1044,1.78,27.98,1111122 
SCCF RECON,ioos:station:SCCF:56:1,2017-12-14T18:00:00Z,26.4645,-82.1044,1.74,28.37,1111122 
SCCF RECON,ioos:station:SCCF:56:1,2017-12-14T19:00:00Z,26.4645,-82.1044,1.671,28.45,1111122 
SCCF RECON,ioos:station:SCCF:56:1,2017-12-14T20:00:00Z,26.4645,-82.1044,1.62,28.49,1111122 
SCCF RECON,ioos:station:SCCF:56:1,2017-12-14T21:00:00Z,26.4645,-82.1044,1.6,28.51,1111122 
SCCF RECON,ioos:station:SCCF:56:1,2017-12-14T22:00:00Z,26.4645,-82.1044,1.6,28.48,1111122 
SCCF RECON,ioos:station:SCCF:56:1,2017-12-15T05:00:00Z,26.4645,-82.1044,1.96,28.26,1111122 
SCCF RECON,ioos:station:SCCF:56:1,2017-12-15T06:00:00Z,26.4645,-82.1044,1.85,27.79,1111122 
SCCF RECON,ioos:station:SCCF:56:1,2017-12-15T07:00:00Z,26.4645,-82.1044,1.69,27.81,1111122 
SCCF RECON,ioos:station:SCCF:56:1,2017-12-15T08:00:00Z,26.4645,-82.1044,1.55,27.84,1111122 
SCCF RECON,ioos:station:SCCF:56:1,2017-12-15T09:00:00Z,26.4645,-82.1044,1.43,27.89,1111122 
SCCF RECON,ioos:station:SCCF:56:1,2017-12-15T10:00:00Z,26.4645,-82.1044,1.32,27.9,1111122 
SCCF RECON,ioos:station:SCCF:56:1,2017-12-15T11:00:00Z,26.4645,-82.1044,1.27,27.88,1111122 
SCCF RECON,ioos:station:SCCF:56:1,2017-12-15T12:00:00Z,26.4645,-82.1044,1.32,27.86,1111122 
SCCF RECON,ioos:station:SCCF:56:1,2017-12-15T13:00:00Z,26.4645,-82.1044,1.48,28.44,1111122 
SCCF RECON,ioos:station:SCCF:56:1,2017-12-15T14:00:00Z,26.4645,-82.1044,1.62,28.68,1111122 
SCCF RECON,ioos:station:SCCF:56:1,2017-12-15T15:00:00Z,26.4645,-82.1044,1.71,29.13,1111122 
SCCF RECON,ioos:station:SCCF:56:1,2017-12-15T16:00:00Z,26.4645,-82.1044,1.79,29.18,1111122 
SCCF RECON,ioos:station:SCCF:56:1,2017-12-15T17:00:00Z,26.4645,-82.1044,1.828,28.48,1111122 
SCCF RECON,ioos:station:SCCF:56:1,2017-12-15T18:00:00Z,26.4645,-82.1044,1.788,28.95,1111122 
SCCF RECON,ioos:station:SCCF:56:1,2017-12-15T19:00:00Z,26.4645,-82.1044,1.719,29.03,1111122 
SCCF RECON,ioos:station:SCCF:56:1,2017-12-15T20:00:00Z,26.4645,-82.1044,1.65,28.85,1111122 
SCCF RECON,ioos:station:SCCF:56:1,2017-12-15T21:00:00Z,26.4645,-82.1044,1.622,28.73,1111122 
SCCF RECON,ioos:station:SCCF:56:1,2017-12-15T22:00:00Z,26.4645,-82.1044,1.61,28.63,1111122 
SCCF RECON,ioos:station:SCCF:56:1,2017-12-16T05:00:00Z,26.4645,-82.1044,1.9,28.63,1111122 
SCCF RECON,ioos:station:SCCF:56:1,2017-12-16T06:00:00Z,26.4645,-82.1044,1.79,28.66,1111122 
SCCF RECON,ioos:station:SCCF:56:1,2017-12-16T07:00:00Z,26.4645,-82.1044,1.64,28.65,1111122 